This is the latest recevied weather packets stored in our database for station/object N0HEQ. If no packets are shown the sender has not sent any weather packets the latest 10 day(s).
| Time | Temp. | Humidity | Pressure | Rain* | Wind** | Luminosity | Snow |
|---|---|---|---|---|---|---|---|
| 1777398642 | 13.33° C | 50% | 1018 hPa | 0 mm | - | 269 W/m² | - |
| 1777398338 | 12.78° C | 52% | 1018 hPa | 0 mm | - | 284 W/m² | - |
| 1777398035 | 11.67° C | 51% | 1018 hPa | 0 mm | - | 463 W/m² | - |
| 1777397732 | 12.22° C | 50% | 1018 hPa | 0 mm | - | 296 W/m² | - |
| 1777397428 | 12.78° C | 48% | 1017.9 hPa | 0 mm | - | 206 W/m² | - |
| 1777397124 | 13.33° C | 49% | 1018.1 hPa | 0 mm | - | 459 W/m² | - |
| 1777396821 | 12.78° C | 50% | 1017.9 hPa | 0 mm | - | 556 W/m² | - |
| 1777396517 | 12.78° C | 50% | 1018.1 hPa | 0 mm | - | 425 W/m² | - |
| 1777396215 | 12.78° C | 52% | 1017.9 hPa | 0 mm | - | 558 W/m² | - |
| 1777395910 | 12.78° C | 53% | 1017.9 hPa | 0 mm | - | 454 W/m² | - |
| 1777395606 | 12.22° C | 51% | 1017.9 hPa | 0 mm | - | 606 W/m² | - |
| 1777395302 | 11.67° C | 54% | 1017.6 hPa | 0 mm | - | 569 W/m² | - |
| 1777395000 | 11.67° C | 54% | 1018 hPa | 0 mm | - | 398 W/m² | - |
| 1777394696 | 11.67° C | 54% | 1018 hPa | 0 mm | - | 440 W/m² | - |
| 1777394393 | 11.67° C | 58% | 1017.6 hPa | 0 mm | - | 79 W/m² | - |
| 1777394090 | 11.67° C | 61% | 1017.5 hPa | 0 mm | - | 157 W/m² | - |
| 1777393785 | 10.56° C | 63% | 1017.6 hPa | 0 mm | - | 148 W/m² | - |
| 1777393484 | 10° C | 59% | 1017.6 hPa | 0 mm | - | 253 W/m² | - |
| 1777393180 | 10.56° C | 60% | 1017.5 hPa | 0 mm | - | 116 W/m² | - |
| 1777392877 | 10° C | 64% | 1017.6 hPa | 0 mm | - | 267 W/m² | - |
| 1777392572 | 10° C | 68% | 1017.5 hPa | 0 mm | - | 173 W/m² | - |
| 1777392269 | 10° C | 67% | 1017.5 hPa | 0 mm | - | 190 W/m² | - |
| 1777391969 | 9.44° C | 71% | 1017.6 hPa | 0 mm | - | 70 W/m² | - |
| 1777391664 | 8.89° C | 72% | 1017.7 hPa | 0 mm | - | 130 W/m² | - |
| 1777391361 | 9.44° C | 72% | 1017.9 hPa | 0 mm | - | 143 W/m² | - |
* Rain latest hour (hover to see other rain measurements)
** Current wind speed in m/s (hover to see current wind gust speed)